Regional Weather Roundup
Issued by NWS Cleveland, OH

Home | Current Version | Previous Version | Text Only | Print | Product List | Glossary Off
Versions: 1 2 3 4 5 6 7 8 9 10 11 12 13 14 15 16 17 18 19 20 21 22 23 24 25 26 27 28 29 30 31 32 33 34 35 36 37 38 39 40 41 42 43 44 45 46 47 48 49 50

000
ASUS41 KCLE 280210
RWRCLE
OHIO REGIONAL WEATHER ROUNDUP
NATIONAL WEATHER SERVICE CLEVELAND, OH
900 PM EST SAT DEC 27 2014

NOTE: "FAIR" INDICATES FEW OR NO CLOUDS BELOW 12,000 FEET WITH NO
SIGNIFICANT WEATHER AND/OR OBSTRUCTIONS TO VISIBILITY.

OHZ001>008-015>018-024>027-034-035-043-044-280300-
   NORTHWEST OHIO

CITY           SKY/WX    TMP DP  RH WIND       PRES   REMARKS
DEFIANCE       LGT RAIN  42  36  79 W8        30.04R
FINDLAY        CLOUDY    48  45  89 SW8       29.99F FOG
TOLEDO EXPRESS CLOUDY    43  36  75 W17G26    30.00S
TOLEDO EXEC    LGT RAIN  45  40  82 W10       29.99F
LIMA           LGT RAIN  48  45  89 SW12      30.02F FOG
$$

OHZ009>014-019>023-028>033-038-089-280300-
   NORTHEAST OHIO

CITY           SKY/WX    TMP DP  RH WIND       PRES   REMARKS
CLE-HOPKINS    CLOUDY    48  43  82 SW13      30.02S
CLE-LAKEFRONT  CLOUDY    50  43  77 S14       29.99S
CUY CO. ARPT   LGT RAIN  52  45  76 SW12G23   30.00S
LORAIN-ELYRIA  CLOUDY    47  44  90 SW13      30.00F
ASHTABULA      CLOUDY    51  38  60 SW15      29.99F
AKRON-CANTON   LGT RAIN  47  40  76 SW14      30.03S
WOOSTER        LGT RAIN  46  44  93 SW14      30.02F
MANSFIELD      LGT RAIN  46  45  96 SW10      30.01F
YOUNGSTOWN     LGT RAIN  47  40  76 SW10      30.01F
$$

OHZ042-051>053-060>062-070>072-077>081-280300-
  SOUTHWEST OHIO

CITY           SKY/WX    TMP DP  RH WIND       PRES   REMARKS
CINC-COVINGTON CLOUDY    48  43  82 SW8       30.06F
CINC-LUNKEN    CLOUDY    47  47 100 SW5       30.08S
HAMILTON       CLOUDY    48  47  96 VRB3      30.08R
DAYTON         LGT RAIN  47  45  93 SW9       30.06F FOG
WRIGHT-PAT AFB LGT RAIN  47  46  97 SW7       30.05F
DAYTON GENERAL CLOUDY    48  46  93 SW10      30.05R
WILMINGTON     LGT RAIN  47  45  93 S10       30.04F
$$

OHZ036-037-039>041-045>050-054>059-063>069-073>076-082>088-280300-
  CENTRAL AND SOUTHEAST OHIO

CITY           SKY/WX    TMP DP  RH WIND       PRES   REMARKS
COLUMBUS       CLOUDY    46  46 100 S8        30.03F
OSU AIRPORT    LGT RAIN  48  45  89 S9        30.03F
BOLTON FIELD   CLOUDY    47  47  98 S10       30.04F
RICKENBACK AFB RAIN      47  46  97 S7        30.04F
NEWARK         RAIN      48  45  89 S5        30.04F FOG
MARION         CLOUDY    47  45  93 SW9       30.02F FOG
LANCASTER      RAIN      49  46  90 S5        30.06S FOG
ZANESVILLE     CLOUDY    47  42  83 CALM      30.06F
NEW PHILLY     LGT RAIN  51  40  65 VRB5      30.05F
$$



USA.gov is the U.S. government's official web portal to all federal, state and local government web resources and services.